{"data":{"norad_id":48909,"epoch":"2026-05-25T01:40:13.707840Z","epoch_age_seconds":68293,"freshness":"FRESH","line1":"1 48909U 21059AG  26145.06960310  .00069248  00000+0  44851-3 0  9993","line2":"2 48909  97.6793 340.6744 0002064  69.0646 291.0839 15.75841241274153","mean_motion":15.75841241,"eccentricity":0.0002064,"inclination_deg":97.6793,"raan_deg":340.6744,"arg_perigee_deg":69.0646,"mean_anomaly_deg":291.0839,"bstar":0.00044851,"rev_number":27415,"period_min":91.379763553225,"perigee_km":340.8513119412,"apogee_km":343.62548290526,"semimajor_km":6720.3753974232,"source":"CELESTRAK","updated_at":"2026-05-25T13:37:56.976354Z"}}